Tracking 27419 objects as of 9-Jun-2023
HD Live streaming from Space Station
objects crossing your sky now

DELTA 1 DEB

Track DELTA 1 DEB now!
10-day predictions


NORAD ID: 19590
Int'l Code: 1973-086HG
Perigee: 1,512.5 km
Apogee: 1,584.7 km
Inclination: 102.5 °
Period: 116.9 minutes
Semi major axis: 7919 km
RCS: 0.0128 m2 (small)
Launch date: November 6, 1973
Source: United States (US)
Launch site: AIR FORCE WESTERN TEST RANGE (AFWTR)

Note: This is SATELLITE DEBRIS
Your satellite tracking list
Your tracking list is empty




NASA's NSSDC Master Catalog

Two Line Element Set (TLE):
1 19590U 73086HG  23159.77926095 -.00000043  00000-0  25070-4 0  9999
2 19590 102.4699 156.4031 0045604 232.5702 303.7481 12.31828010719422
Source of the keplerian elements: AFSPC